DW1105 Weather Reports


Display with metric or nautical units.
time (UTC)temp
F
wind
direction
speed
MPH
gust
MPH
rain 1hr
in
rain 24hr
in
rain mn
in
humidity
%
barometer
mb
20260509211827 54 285 0.0 0.0 0.13 0.33 0.33 93 1010.1
20260509211323 54 313 0.0 0.0 0.14 0.32 0.32 92 1009.8
20260509210820 54 313 0.0 0.0 0.12 0.30 0.30 92 1010.0
20260509210317 54 313 0.0 1.0 0.12 0.29 0.29 92 1009.8
20260509205812 54 313 0.0 1.0 0.12 0.28 0.28 92 1009.9
20260509205312 54 313 0.0 2.0 0.10 0.26 0.26 92 1009.8
20260509204829 54 313 1.0 2.0 0.10 0.25 0.25 91 1009.8
20260509204326 54 347 0.0 2.0 0.09 0.24 0.24 91 1009.8
20260509203823 54 346 0.0 2.0 0.10 0.24 0.24 91 1009.7
20260509203320 54 342 1.0 4.0 0.10 0.23 0.23 91 1009.9
20260509202815 54 342 2.0 5.0 0.11 0.22 0.22 91 1009.8
20260509202311 54 349 0.0 5.0 0.10 0.21 0.21 90 1010.0
20260509201813 54 309 0.0 3.0 0.11 0.20 0.20 90 1010.1
20260509201328 54 340 1.0 3.0 0.12 0.18 0.18 90 1010.0
20260509200825 54 226 0.0 7.0 0.11 0.17 0.17 90 1010.1
20260509200321 54 269 2.0 8.0 0.12 0.17 0.17 90 1010.2
20260509195818 54 281 1.0 5.0 0.12 0.16 0.16 90 1010.3
20260509195315 54 317 1.0 5.0 0.13 0.16 0.16 90 1010.4
20260509194811 54 332 1.0 4.0 0.12 0.15 0.15 90 1010.5
20260509194311 54 278 1.0 3.0 0.12 0.15 0.15 90 1010.4
20260509193828 54 265 1.0 6.0 0.12 0.14 0.14 90 1010.4
20260509193325 54 22 2.0 6.0 0.11 0.13 0.13 90 1010.6
20260509192820 54 289 1.0 5.0 0.09 0.11 0.11 90 1010.5
20260509192337 54 355 2.0 5.0 0.08 0.10 0.10 89 1010.6
20260509191813 55 227 2.0 4.0 0.06 0.08 0.08 89 1010.4
20260509191329 55 267 1.0 5.0 0.05 0.06 0.06 89 1010.7
20260509190826 55 286 2.0 5.0 0.05 0.06 0.06 88 1010.7
20260509190327 55 277 0.0 7.0 0.04 0.05 0.05 88 1010.6
20260509185822 55 277 1.0 5.0 0.04 0.04 0.04 88 1010.6
20260509185320 55 333 1.0 4.0 0.03 0.03 0.03 88 1010.6
20260509184816 55 328 1.0 4.0 0.03 0.03 0.03 88 1010.5
20260509184313 56 294 1.0 3.0 0.03 0.03 0.03 88 1010.6
20260509183829 55 17 0.0 6.0 0.02 0.02 0.02 87 1010.4
20260509183346 55 204 2.0 10.0 0.02 0.02 0.02 86 1010.3
20260509182824 55 347 6.0 10.0 0.02 0.02 0.02 85 1010.2
20260509182322 56 360 3.0 10.0 0.02 0.02 0.02 84 1010.6
20260509181818 56 306 3.0 10.0 0.02 0.02 0.02 84 1010.8
20260509181314 57 330 2.0 5.0 0.01 0.01 0.01 84 1010.9
20260509180811 57 355 1.0 8.0 0.01 0.01 0.01 82 1011.0
20260509180328 58 234 2.0 8.0 0.00 0.00 0.00 80 1011.2
20260509175845 58 350 2.0 9.0 0.00 0.00 0.00 79 1011.2
20260509175319 59 324 2.0 9.0 0.00 0.00 0.00 77 1011.2
20260509174819 59 342 2.0 10.0 0.00 0.00 0.00 77 1011.1
20260509174317 59 168 1.0 10.0 0.00 0.00 0.00 76 1011.1
20260509173813 59 311 3.0 8.0 0.00 0.00 0.00 76 1010.9
20260509173330 60 324 1.0 6.0 0.00 0.00 0.00 76 1010.8
20260509172826 60 14 1.0 7.0 0.00 0.00 0.00 75 1010.7
20260509172344 61 207 3.0 9.0 0.00 0.00 0.00 73 1010.7
20260509171819 61 306 2.0 9.0 0.00 0.00 0.00 71 1010.7
20260509171336 62 347 3.0 7.0 0.00 0.00 0.00 71 1010.6
20260509170816 61 306 1.0 5.0 0.00 0.00 0.00 73 1010.6
20260509170313 61 15 2.0 8.0 0.00 0.00 0.00 70 1010.6
20260509165828 61 345 2.0 8.0 0.00 0.00 0.00 69 1010.7
20260509165326 61 309 0.0 4.0 0.00 0.00 0.00 69 1010.6
20260509164822 61 284 1.0 4.0 0.00 0.00 0.00 70 1010.6
20260509164318 61 327 1.0 3.0 0.00 0.00 0.00 69 1010.6
20260509163814 61 15 0.0 3.0 0.00 0.00 0.00 69 1010.6
20260509163315 61 242 0.0 8.0 0.00 0.00 0.00 70 1010.8
20260509162831 61 49 1.0 8.0 0.00 0.00 0.00 70 1010.8
20260509162327 61 59 0.0 5.0 0.00 0.00 0.00 71 1010.9
20260509161823 61 123 0.0 5.0 0.00 0.00 0.00 69 1011.0
20260509161321 61 174 1.0 5.0 0.00 0.00 0.00 67 1011.1
20260509160837 61 5 0.0 5.0 0.00 0.00 0.00 69 1011.0
20260509160333 61 348 1.0 5.0 0.00 0.00 0.00 70 1010.8
20260509155827 61 210 0.0 3.0 0.00 0.00 0.00 71 1011.1
20260509155327 61 307 0.0 4.0 0.00 0.00 0.00 69 1011.2
20260509154843 61 147 1.0 4.0 0.00 0.00 0.00 69 1011.4
20260509154317 61 103 0.0 4.0 0.00 0.00 0.00 70 1011.1
20260509153814 62 142 0.0 3.0 0.00 0.00 0.00 70 1011.2
20260509153351 61 159 1.0 3.0 0.00 0.00 0.00 70 1011.2
20260509152846 62 69 1.0 4.0 0.00 0.00 0.00 70 1011.3
20260509152323 61 213 1.0 4.0 0.00 0.00 0.00 72 1011.3
20260509151819 61 115 1.0 7.0 0.00 0.00 0.00 72 1011.1
20260509151315 61 56 1.0 7.0 0.00 0.00 0.00 72 1011.1
20260509150816 61 261 2.0 6.0 0.00 0.00 0.00 72 1011.3
20260509150333 61 243 1.0 7.0 0.00 0.00 0.00 73 1011.4
20260509145829 60 235 1.0 4.0 0.00 0.00 0.00 74 1011.5
20260509145326 60 159 0.0 5.0 0.00 0.00 0.00 74 1011.5
20260509144821 60 13 1.0 2.0 0.00 0.00 0.00 75 1011.5
20260509144316 60 9 0.0 2.0 0.00 0.00 0.00 76 1011.2
20260509143813 59 145 0.0 2.0 0.00 0.00 0.00 75 1011.3
20260509143314 60 54 0.0 2.0 0.00 0.00 0.00 75 1011.4
20260509142850 60 126 0.0 3.0 0.00 0.00 0.00 76 1011.5
20260509142348 60 60 0.0 3.0 0.00 0.00 0.00 75 1011.3
20260509141823 60 241 0.0 5.0 0.00 0.00 0.00 75 1011.1
20260509141317 59 153 1.0 5.0 0.00 0.00 0.00 77 1011.1
20260509140814 59 37 2.0 3.0 0.00 0.00 0.00 77 1011.2
20260509140311 59 5 0.0 2.0 0.00 0.00 0.00 78 1011.2
20260509135827 58 77 0.0 1.0 0.00 0.00 0.00 78 1011.2
20260509135323 57 288 0.0 0.0 0.00 0.00 0.00 80 1011.2
20260509134823 56 285 0.0 2.0 0.00 0.00 0.00 82 1011.3
20260509134319 55 50 0.0 2.0 0.00 0.00 0.00 82 1011.3
20260509133816 54 52 0.0 1.0 0.00 0.00 0.00 83 1011.4
20260509133313 54 57 0.0 0.0 0.00 0.00 0.00 83 1011.4
20260509132829 54 57 0.0 0.0 0.00 0.00 0.00 83 1011.5
20260509132326 54 94 0.0 1.0 0.00 0.00 0.00 84 1011.4
20260509131842 53 94 0.0 1.0 0.00 0.00 0.00 84 1011.4
20260509131320 53 102 0.0 1.0 0.00 0.00 0.00 84 1011.8
20260509130817 53 102 0.0 0.0 0.00 0.00 0.00 84 1011.8
20260509130314 53 94 0.0 0.0 0.00 0.00 0.00 84 1011.8
20260509125830 53 95 0.0 0.0 0.00 0.01 0.00 84 1011.9
20260509125328 53 95 0.0 0.0 0.00 0.01 0.00 84 1011.9
20260509124824 52 95 0.0 0.0 0.00 0.01 0.00 84 1012.0
20260509124320 52 67 0.0 0.0 0.00 0.01 0.00 84 1011.7
20260509123837 52 67 0.0 0.0 0.00 0.01 0.00 84 1012.0
20260509123316 52 67 0.0 2.0 0.00 0.01 0.00 85 1012.0
20260509122811 52 79 0.0 2.0 0.00 0.01 0.00 85 1012.0
20260509122327 52 219 0.0 0.0 0.00 0.01 0.00 85 1011.7
20260509121824 52 219 0.0 0.0 0.00 0.01 0.00 85 1011.7
20260509121319 52 219 0.0 0.0 0.00 0.01 0.00 85 1011.9
20260509120816 52 219 0.0 0.0 0.00 0.01 0.00 85 1011.9
20260509120333 52 219 0.0 0.0 0.00 0.01 0.00 85 1012.1
20260509115848 52 219 0.0 0.0 0.00 0.01 0.00 85 1012.0
20260509115327 52 219 0.0 0.0 0.00 0.01 0.00 85 1011.8
20260509114843 51 219 0.0 0.0 0.00 0.01 0.00 85 1011.7
20260509114318 51 219 0.0 0.0 0.00 0.01 0.00 85 1011.8
20260509113815 51 219 0.0 0.0 0.00 0.01 0.00 85 1011.8
20260509113348 51 219 0.0 3.0 0.00 0.01 0.00 85 1011.9
20260509112824 51 219 1.0 3.0 0.00 0.01 0.00 86 1011.9
20260509112321 51 278 0.0 0.0 0.00 0.01 0.00 86 1010.9
20260509111817 51 327 0.0 0.0 0.00 0.01 0.00 86 1011.4
20260509111317 51 327 0.0 0.0 0.00 0.01 0.00 87 1011.9
20260509110814 51 327 0.0 0.0 0.00 0.01 0.00 88 1012.0
20260509110330 51 327 0.0 0.0 0.00 0.01 0.00 89 1012.0
20260509105826 51 327 0.0 0.0 0.00 0.01 0.00 89 1012.0
20260509105322 50 327 0.0 0.0 0.00 0.01 0.00 89 1012.2
20260509104819 50 327 0.0 0.0 0.00 0.01 0.00 89 1012.1
20260509104315 50 327 0.0 0.0 0.00 0.01 0.00 89 1012.1
20260509103815 50 327 0.0 0.0 0.00 0.01 0.00 89 1011.9
20260509103311 50 327 0.0 0.0 0.00 0.01 0.00 90 1011.8
20260509102827 50 327 0.0 0.0 0.00 0.01 0.00 90 1011.9
20260509102323 50 327 0.0 0.0 0.00 0.01 0.00 89 1011.5
20260509101820 50 327 0.0 0.0 0.00 0.01 0.00 89 1011.5
20260509101315 50 333 0.0 0.0 0.00 0.01 0.00 90 1011.5
20260509100831 50 333 0.0 0.0 0.00 0.01 0.00 89 1011.3
20260509100311 50 333 0.0 0.0 0.00 0.01 0.00 89 1011.5
20260509095827 50 333 0.0 0.0 0.00 0.01 0.00 89 1011.5
20260509095323 50 333 0.0 0.0 0.00 0.01 0.00 89 1011.6
20260509094820 50 333 0.0 0.0 0.00 0.01 0.00 89 1011.4
20260509094316 50 333 0.0 0.0 0.00 0.01 0.00 89 1011.3
20260509093812 50 333 0.0 0.0 0.00 0.01 0.00 89 1011.3
20260509093329 50 333 0.0 0.0 0.00 0.01 0.00 89 1011.5
20260509092825 50 333 0.0 0.0 0.00 0.01 0.00 89 1011.6
20260509092326 50 333 0.0 1.0 0.00 0.01 0.00 89 1011.7
20260509091823 50 333 0.0 1.0 0.00 0.01 0.00 89 1011.8
20260509091319 50 333 0.0 0.0 0.00 0.01 0.00 89 1011.7
20260509090815 50 333 0.0 0.0 0.00 0.01 0.00 89 1011.7
20260509090312 50 333 0.0 0.0 0.00 0.01 0.00 89 1011.7
20260509085828 50 333 0.0 0.0 0.00 0.01 0.00 89 1011.7
20260509085325 50 333 0.0 0.0 0.00 0.01 0.00 89 1011.6
20260509084826 50 333 0.0 0.0 0.00 0.01 0.00 89 1011.6
20260509084322 50 333 0.0 1.0 0.00 0.01 0.00 89 1011.7
20260509083818 50 333 0.0 1.0 0.00 0.01 0.00 89 1011.7
20260509083315 50 333 0.0 2.0 0.00 0.01 0.00 89 1011.7
20260509082812 50 333 1.0 2.0 0.00 0.01 0.00 89 1011.9
20260509082329 50 346 1.0 2.0 0.00 0.01 0.00 89 1011.9
20260509081826 50 346 0.0 1.0 0.00 0.01 0.00 89 1011.8
20260509081326 50 346 0.0 1.0 0.00 0.01 0.00 88 1012.0
20260509080822 50 346 0.0 0.0 0.00 0.01 0.00 89 1012.0
20260509080319 50 346 0.0 0.0 0.00 0.01 0.00 89 1011.7
20260509075814 51 346 0.0 0.0 0.00 0.03 0.00 88 1011.8
20260509075311 51 346 0.0 1.0 0.00 0.03 0.00 89 1011.8
20260509074828 51 346 0.0 0.0 0.00 0.03 0.00 89 1011.9
20260509074324 50 346 0.0 0.0 0.00 0.03 0.00 89 1012.0
20260509073824 50 346 0.0 0.0 0.00 0.03 0.00 88 1012.0
20260509073321 50 346 0.0 0.0 0.00 0.03 0.00 88 1012.0
20260509072816 50 346 0.0 0.0 0.00 0.03 0.00 88 1012.0
20260509072313 50 346 0.0 0.0 0.00 0.03 0.00 88 1011.9
20260509071828 50 346 0.0 0.0 0.00 0.03 0.00 88 1012.0
20260509071324 50 346 0.0 0.0 0.00 0.03 0.00 88 1011.8
20260509070820 50 346 0.0 2.0 0.00 0.03 0.00 88 1011.7
20260509070320 50 346 0.0 2.0 0.00 0.03 0.00 88 1011.7
20260509065817 50 346 1.0 2.0 0.00 0.03 0.00 88 1011.7
20260509065313 50 355 0.0 2.0 0.00 0.03 0.00 88 1011.7
20260509064830 50 355 0.0 2.0 0.00 0.03 0.00 88 1011.7
20260509064327 50 355 0.0 0.0 0.00 0.03 0.00 87 1011.7
20260509063823 50 355 0.0 0.0 0.00 0.03 0.00 87 1011.8
20260509063320 50 355 0.0 1.0 0.00 0.03 0.00 87 1011.7
20260509062821 50 355 0.0 2.0 0.00 0.03 0.00 87 1011.7
20260509062317 50 355 0.0 2.0 0.00 0.03 0.00 87 1011.8
20260509061814 50 355 0.0 2.0 0.00 0.03 0.00 88 1011.8
20260509061330 50 355 0.0 0.0 0.00 0.03 0.00 87 1012.0
20260509060826 50 355 0.0 0.0 0.00 0.03 0.00 87 1012.1
20260509060323 51 355 0.0 0.0 0.00 0.03 0.00 88 1012.1
20260509055820 51 355 0.0 2.0 0.00 0.04 0.00 87 1012.2
20260509055317 50 355 1.0 2.0 0.00 0.04 0.00 87 1012.2
20260509054814 51 355 1.0 2.0 0.00 0.04 0.00 87 1012.5
20260509054330 51 355 0.0 0.0 0.00 0.04 0.00 87 1012.4
20260509053826 51 355 0.0 0.0 0.00 0.04 0.00 86 1012.4
20260509053323 51 355 0.0 0.0 0.00 0.04 0.00 86 1012.4
20260509052819 51 355 0.0 0.0 0.00 0.04 0.00 85 1012.5
20260509052315 51 355 0.0 1.0 0.00 0.04 0.00 85 1012.6
20260509051816 51 355 0.0 1.0 0.00 0.04 0.00 86 1012.8
20260509051312 51 355 0.0 0.0 0.00 0.04 0.00 85 1012.9
20260509050829 51 355 0.0 0.0 0.00 0.04 0.00 85 1012.7
20260509050325 51 355 0.0 0.0 0.00 0.04 0.00 84 1012.7
20260509045821 51 355 0.0 0.0 0.00 0.04 0.00 83 1012.6
20260509045317 51 355 0.0 0.0 0.00 0.04 0.00 82 1012.6
20260509044814 51 355 0.0 0.0 0.00 0.04 0.00 83 1012.7
20260509044315 51 355 0.0 0.0 0.00 0.04 0.00 82 1012.7
20260509043831 51 355 0.0 0.0 0.00 0.04 0.00 82 1012.8
20260509043327 51 355 0.0 0.0 0.00 0.04 0.00 82 1012.8
20260509042823 51 355 0.0 0.0 0.00 0.04 0.00 82 1012.7
20260509042319 51 355 0.0 1.0 0.00 0.04 0.00 82 1012.7
20260509041816 51 355 0.0 1.0 0.00 0.04 0.00 82 1012.7
20260509041311 51 355 0.0 0.0 0.00 0.04 0.00 81 1012.6
20260509040811 51 355 0.0 0.0 0.00 0.04 0.00 81 1012.6
20260509040329 51 355 0.0 0.0 0.00 0.04 0.00 80 1012.8
20260509035824 51 355 0.0 0.0 0.00 0.04 0.04 80 1012.9
20260509035320 51 355 0.0 0.0 0.00 0.04 0.04 80 1012.9
20260509034817 51 355 0.0 0.0 0.00 0.04 0.04 80 1012.9
20260509034313 51 355 0.0 0.0 0.00 0.04 0.04 79 1012.7
20260509033830 51 355 0.0 0.0 0.00 0.04 0.04 79 1012.6
20260509033330 52 355 0.0 0.0 0.00 0.04 0.04 78 1012.6
20260509032825 52 355 0.0 0.0 0.00 0.04 0.04 78 1012.7
20260509032323 52 355 0.0 0.0 0.00 0.04 0.04 78 1012.7
20260509031820 52 355 0.0 0.0 0.00 0.04 0.04 77 1012.7
20260509031316 52 355 0.0 0.0 0.00 0.04 0.04 78 1012.8
20260509030812 52 355 0.0 0.0 0.00 0.04 0.04 78 1012.9
20260509030328 52 355 0.0 0.0 0.00 0.04 0.04 78 1012.9
20260509025828 52 355 0.0 1.0 0.00 0.04 0.04 78 1012.8
20260509025325 52 355 0.0 1.0 0.00 0.04 0.04 78 1012.9
20260509024821 52 355 0.0 0.0 0.00 0.04 0.04 77 1012.9
20260509024317 52 355 0.0 0.0 0.00 0.04 0.04 77 1012.9
20260509023813 53 355 0.0 0.0 0.00 0.04 0.04 77 1012.9
20260509023330 53 355 0.0 0.0 0.00 0.04 0.04 76 1012.8
20260509022826 52 355 0.0 0.0 0.00 0.04 0.04 75 1012.8
20260509022326 52 355 0.0 0.0 0.00 0.04 0.04 75 1012.8
20260509021823 52 355 0.0 0.0 0.00 0.04 0.04 75 1012.7
20260509021319 52 355 0.0 0.0 0.00 0.04 0.04 75 1012.7
20260509020815 52 355 0.0 0.0 0.00 0.04 0.04 74 1012.6
20260509020312 52 355 0.0 0.0 0.00 0.04 0.04 75 1012.6
20260509015828 52 355 0.0 0.0 0.00 0.04 0.04 75 1012.5
20260509015325 52 355 0.0 0.0 0.00 0.04 0.04 75 1012.4
20260509014825 52 355 0.0 0.0 0.00 0.04 0.04 75 1012.3
20260509014320 52 355 0.0 0.0 0.00 0.04 0.04 75 1012.3
20260509013816 52 355 0.0 0.0 0.00 0.04 0.04 75 1012.3
20260509013313 52 355 0.0 0.0 0.00 0.04 0.04 74 1012.2
20260509012829 52 355 0.0 0.0 0.00 0.04 0.04 74 1012.2